Back to catalog

STARLINK-3300

AliveCommunicationsVLEO
NORAD 50841·PAYLOAD·🇺🇸 United States

Launched Jan 6, 2022 from Cape Canaveral Space Force Station

Loading…

Next Passes (next 24 hours)

TLE

FreshSource: CelesTrak SupGP

Epoch: Sep 14, 2026, 21:12 UTC

1 50841C 22001AQ  26257.88381944  .00032042  00000+0  97241-3 0  2573
2 50841  53.1587  36.0477 0001203  78.4449 239.6619 15.33529439    19

Track STARLINK-3300 in real time with AllMySat

Download on the App Store